Search your local weather  

 

Hazardous Weather Conditions

Air Quality Alert issued August 9 at 4:10PM MDT

Current Conditions: DENVER, COLORADO

Fair


79.0 F

Last Updated on Aug 9 2022, 10:35 pm MDT
Humidity: 30%
Wind Speed: SE 6.9 mph
Barometer 30.29 in
Dewpoint: 44.6 F
Visibility: 10.00 mi
Precip: --
Heat Index: NA
Wind Chill: NA
Current conditions at:

Broomfield / Jeffco, CO (KBJC)

Lat: 39.90085 Lon: -105.10417

Local Radar Image active severe weather and emergency alerts image image weather storm and storm spotter reports image weather observation monitoring service image
Local
Radar
Active
Alerts
Storm Reports Weather
Monitoring

5 Day Forecast for DENVER, COLORADO (80202)

Wednesday

Mostly Sunny

High 95 °F
Wednesday
Night
Mostly Clear

Low 65 °F
Thursday

Isolated T-storm

High 96 °F
Thursday
Night
Partly Cloudy

Low 65 °F
Friday

Isolated T-storm

High 96 °F
Friday
Night
Mostly Clear

Low 66 °F
Saturday

Chance of T-storms

High 95 °F
Saturday
Night
Partly Cloudy

Low 66 °F
Sunday

Chance of T-storms

High 94 °F

Sign-up For Email & Text Message Weather Alert Notification Services



Advertise Here

Observation History for DENVER, COLORADO


Time Wind
(mph)
Vis
(mi)
Weather Precip (in) Temperature (F) Relative
Humidity
Wind
Chill
(F)
Heat
Index
(F)
Pressure
Air Dwpt altimeter
(in)
sea level
(mb)
10:35 pm MDT SE 6.9 10.00 Fair -- 79.0 44.6 30% NA NA 30.29 M
10:15 pm MDT S 6.9 10.00 Fair -- 81.0 46.4 30% NA 80 30.28 M
9:45 pm MDT SE 8.1 10.00 A Few Clouds -- 81.0 46.4 30% NA 80 30.27 M
7:45 pm MDT N 6.9 10.00 A Few Clouds -- 86.0 41.0 20% NA 83 30.23 M
6:45 pm MDT N 6.9 10.00 A Few Clouds -- 91.0 37.4 15% NA 87 30.22 M
5:55 pm MDT NE 8.1 10.00 Partly Cloudy -- 90.0 42.8 20% NA 86 30.22 M
4:45 pm MDT E 8.1 10.00 Partly Cloudy -- 93.0 39.2 15% NA 89 30.23 M
3:51 pm MDT N 0.0 30.00 Partly Cloudy -- 90.0 39.2 17% NA 86 30.24 M
2:50 pm MDT E 4.6 10.00 Partly Cloudy -- 91.0 41.0 17% NA 87 30.25 M
1:45 pm MDT E 6.9 10.00 Partly Cloudy -- 90.0 48.2 24% NA 87 30.26 M
12:47 pm MDT E 6.9 10.00 Partly Cloudy -- 84.0 51.8 33% NA 82 30.27 M
11:55 am MDT E 3.5 10.00 Partly Cloudy -- 84.0 53.6 35% NA 83 30.28 M
11:22 am MDT NE 5.8 10.00 Partly Cloudy -- 82.0 53.6 37% NA 81 30.29 M
10:55 am MDT NE 5.8 10.00 A Few Clouds -- 81.0 53.6 39% NA 81 30.29 M
9:48 am MDT E 4.6 10.00 A Few Clouds -- 77.0 55.4 47% NA NA 30.28 M
8:47 am MDT 4.6 10.00 Partly Cloudy -- 73.0 53.6 50% NA NA 30.28 M
7:45 am MDT N 5.8 10.00 Partly Cloudy -- 72.0 57.2 61% NA NA 30.28 M
5:47 am MDT N 0.0 10.00 Partly Cloudy -- 66.0 57.2 73% NA NA 30.24 M
5:15 am MDT NW 6.9 10.00 Fair -- 66.0 59.0 78% NA NA 30.24 M
4:55 am MDT N 6.9 10.00 Fair -- 68.0 57.2 69% NA NA 30.23 M
4:35 am MDT N 0.0 10.00 Fair -- 66.0 57.2 73% NA NA 30.23 M
4:15 am MDT N 0.0 10.00 Fair -- 68.0 55.4 64% NA NA 30.23 M
3:55 am MDT N 5.8 10.00 Fair -- 68.0 55.4 64% NA NA 30.22 M
3:15 am MDT NW 5.8 10.00 Fair -- 70.0 53.6 57% NA NA 30.22 M

Regional Weather Observation

Erie Municipal Airport, CO (KEIK)

Fair
74.0 F

Boulder Municipal Airport, CO (KBDU)

Fair
77.0 F

Unknown Station (KC99)

Fair
54.0 F

Vance Brand Airport, CO (KLMO)

Fair
73.0 F

Berthoud Pass, CO (K0CO)

Fair
48.0 F

Fort Collins/Loveland - Northern Colorado Regional Airport, CO (KFNL)

Fair
80.0 F

Advertise Here


Advertise Here